Location: Godiavel Galaoual
(15.2485°N, 12.6604°W)
Time: 20:29:14
(UTC+00:00)

BUGSAT 1 - Pass Details

Date: 07 August 2021
Orbit: 558 x 601 km, 98.1° (Epoch: 25 September)

Event Time Altitude Azimuth Distance (km) Brightness Sun altitude
Rises 05:21:10 0° 7° (N) 2,832 ? -17.5°
Reaches altitude 10° 05:23:21 10° 4° (N) 1,933 ? -17.0°
Maximum altitude 05:27:30 65° 283° (WNW) 660 ? -16.0°
Enters shadow 05:30:46 16° 203° (SSW) 1,572 ? -15.3°
